Weather in Zaton

Croatia     44°13′17″N   15°10′15″E
temp.,
°C
wind,
m/s
gust,
m/s
humid.,
%
clouds,
%
prec.,
mm/h
press.,
hPa
HPBL,
m
20 january, wed
wed2001:00+8ssw367390 0.1 1024573
04:00+8s3672100 0.2 1023585
07:00+7ese4578100 0.3 1023401
10:00+7ese6982100 0.6 1024462
13:00+8ese5783100 1.4 1023329
16:00+10s357167 0.4 1021542
19:00+9sse698360 0.8 1020527
22:00+8ese71084100 0.3 1020313
21 january, thu
thu2101:00+9se71181100 0.4 1018399
04:00+8ese468457 0.0 1017167
07:00+10se698754 0.1 1017336
10:00+12sse7108394 0.1 1017780
13:00+13sse9127797 1.3 1016774
16:00+12sse81380100 0.8 1015968
19:00+12se81377100 3.7 1015527
22:00+12se61180100 1.3 1014346
22 january, fri
fri2201:00+12sse91582100 3.1 1013640
04:00+12sse81384100 2.9 1010561
07:00+12sse8138495 5.4 1009449
10:00+13sse71283100 2.4 1007430
13:00+13s61381100 4.9 1005430
16:00+13sse81483100 1.4 1003593
19:00+13sse51186100 4.9 1003328
22:00+13se71384100 2.8 1001396
23 january, sat
sat2301:00+13sse101683100 5.5 1000724
04:00+12se81584100 4.6 998669
07:00+12s111476100 10.0 996674
10:00+11ese3482100 3.4 995230
13:00+12w81070100 8.4 9951103
16:00+12w101467100 1.6 9951106
19:00+11sw4675100 5.4 996638
22:00+8sse6789100 8.1 996342
24 january, sun
sun2401:00+8ssw3578100 9.6 997607
04:00+8s148399 2.4 997495
07:00+8wsw247799 4.6 999411
10:00+8nne237997 1.9 1002346
13:00+9sw347388 2.3 1003832
16:00+9s136996 0.2 1003390
19:00+8sse347398 1.3 1003317
22:00+7e5681100 1.6 1001375